Regional Weather Roundup
Issued by NWS

Home | Current Version | Previous Version | Text Only | Print | Product List | Glossary Off
Versions: 1 2 3 4 5 6 7 8 9 10 11 12 13 14 15 16 17 18 19 20 21 22 23 24 25 26 27 28 29 30 31 32 33 34 35 36 37 38 39 40 41 42 43 44 45 46 47 48 49 50

000
ASUS43 KLSX 221359
RWRMO

WEATHER SUMMARY FOR MISSOURI
NATIONAL WEATHER SERVICE SPRINGFIELD MO
900 AM CDT MON SEP 22 2014

NOTE: "FAIR" INDICATES FEW OR NO CLOUDS BELOW 12,000 FEET WITH NO
       SIGNIFICANT WEATHER AND/OR OBSTRUCTIONS TO VISIBILITY.
       CURRENT SKY AND/OR WEATHER CONDITIONS ARE NOT AVAILABLE FOR
       CHILLICOTHE AND FARMINGTON.

MOZ001>031-035>038-043-044-053-054-221500-
...NORTHERN AND WESTERN MISSOURI...

CITY           SKY/WX    TMP DP  RH WIND       PRES   REMARKS
KANSAS CTY INT SUNNY     57  51  80 N3        30.32S
KANSAS C DTWN  SUNNY     58  52  80 CALM      30.33R
LEE`S SUMMIT   SUNNY     58  52  80 CALM      30.33R
ST JOSEPH      SUNNY     52  51  97 CALM      30.33S
KIRKSVILLE     SUNNY     56  51  84 N6        30.33R

$$
MOZ066>068-077>081-088>096-101>105-221500-
...SOUTHWEST MISSOURI...

CITY           SKY/WX    TMP DP  RH WIND       PRES   REMARKS
SPRINGFIELD    SUNNY     59  51  75 NE7       30.31R
JOPLIN         SUNNY     58  52  80 E3        30.33R

$$
MOZ032>034-039>042-045>050-055>058-069>072-221500-
...CENTRAL MISSOURI...

CITY           SKY/WX    TMP DP  RH WIND       PRES   REMARKS
COLUMBIA       SUNNY     57  52  83 N5        30.32R
JEFFERSON CITY SUNNY     54  52  93 NW3       30.32R
ROLLA          SUNNY     57  51  80 N7        30.29R
SEDALIA        SUNNY     58  51  78 NE5       30.32S
OSAGE BEACH    SUNNY     57  50  77 NE8       30.31R

$$
MOZ051-052-059>065-221500-
...EAST CENTRAL MISSOURI...

CITY           SKY/WX    TMP DP  RH WIND       PRES   REMARKS
ST LOUIS INTL  SUNNY     59  51  75 NE3       30.29R
SPIRIT OF STL  SUNNY     58  51  78 NE5       30.29R
ST CHARLES     SUNNY     59  51  75 E3        30.29R

$$
MOZ072>076-082>087-097>100-106>115-221500-
...SOUTH CENTRAL AND SOUTHEAST MISSOURI...

CITY           SKY/WX    TMP DP  RH WIND       PRES   REMARKS
CAPE GIRARDEAU SUNNY     61  53  75 NE7       30.26R
FARMINGTON     SUNNY     57  52  82 N5        30.30R
POPLAR BLUFF   SUNNY     62  51  67 NE9       30.25R
WEST PLAINS    SUNNY     60  50  69 NE8       30.30R

$$



USA.gov is the U.S. government's official web portal to all federal, state and local government web resources and services.